W9QL-13 Weather Reports


time (UTC)temp
C
wind
direction
speed
KPH
gust
KPH
rain 1hr
cm
rain 24hr
cm
rain mn
cm
humidity
%
barometer
mb
20260504045823 13 247 1.6 1.6 0.00 0.00 0.00 67 1003.9
20260504045321 13 278 1.6 3.2 0.00 0.00 0.00 66 1003.8
20260504044821 13 244 0.0 3.2 0.00 0.00 0.00 66 1003.8
20260504044323 13 274 1.6 1.6 0.00 0.00 0.00 66 1003.8
20260504043821 13 276 1.6 4.8 0.00 0.00 0.00 66 1003.7
20260504043321 13 293 3.2 8.0 0.00 0.00 0.00 67 1003.8
20260504042824 13 260 1.6 3.2 0.00 0.00 0.00 66 1003.8
20260504042321 13 299 0.0 1.6 0.00 0.00 0.00 65 1003.8
20260504041821 13 275 0.0 0.0 0.00 0.00 0.00 65 1003.7
20260504041321 13 253 0.0 3.2 0.00 0.00 0.00 64 1003.7
20260504040821 13 318 0.0 0.0 0.00 0.00 0.00 64 1003.7
20260504040321 13 269 0.0 3.2 0.00 0.00 0.00 64 1003.8
20260504035821 13 267 0.0 0.0 0.00 0.00 0.00 64 1003.8
20260504035251 13 246 0.0 0.0 0.00 0.00 0.00 64 1003.8
20260504034751 13 246 0.0 0.0 0.00 0.00 0.00 64 1003.9
20260504034253 13 226 0.0 0.0 0.00 0.00 0.00 63 1003.9
20260504033751 13 256 0.0 0.0 0.00 0.00 0.00 63 1004.0
20260504033251 13 256 0.0 0.0 0.00 0.00 0.00 63 1004.0
20260504032751 13 257 1.6 1.6 0.00 0.00 0.00 64 1004.0
20260504032251 13 257 1.6 3.2 0.00 0.00 0.00 64 1004.0
20260504031751 13 257 1.6 0.0 0.00 0.00 0.00 64 1004.1
20260504031251 13 247 0.0 0.0 0.00 0.00 0.00 65 1004.0
20260504030751 13 247 0.0 0.0 0.00 0.00 0.00 64 1004.1
20260504030251 13 262 0.0 8.0 0.00 0.00 0.00 64 1004.1
20260504025721 13 274 1.6 1.6 0.00 0.00 0.00 65 1004.1
20260504025151 13 294 1.6 3.2 0.00 0.00 0.00 65 1004.1
20260504024621 13 246 0.0 0.0 0.00 0.00 0.00 64 1004.1
20260504024121 13 264 0.0 0.0 0.00 0.00 0.00 64 1004.0
20260504023621 13 264 0.0 0.0 0.00 0.00 0.00 64 1004.0
20260504023050 13 264 0.0 0.0 0.00 0.00 0.00 62 1004.1
20260504022552 13 264 0.0 0.0 0.00 0.00 0.00 62 1004.1
20260504022050 13 264 0.0 0.0 0.00 0.00 0.00 62 1004.1
20260504021520 14 264 0.0 0.0 0.00 0.00 0.00 61 1004.0
20260504021020 14 264 0.0 0.0 0.00 0.00 0.00 60 1004.0
20260504020520 14 264 0.0 0.0 0.00 0.00 0.00 59 1004.0
20260504020020 15 264 0.0 0.0 0.00 0.00 0.00 58 1003.9
20260504015450 15 264 0.0 0.0 0.00 0.00 0.00 57 1003.9
20260504014950 15 264 0.0 0.0 0.00 0.00 0.00 56 1003.9
20260504014450 15 264 0.0 0.0 0.00 0.00 0.00 55 1003.9
20260504013950 16 264 0.0 0.0 0.00 0.00 0.00 54 1003.8
20260504013420 16 264 0.0 0.0 0.00 0.00 0.00 53 1003.7
20260504012920 16 264 0.0 0.0 0.00 0.00 0.00 52 1003.7
20260504012420 16 264 0.0 0.0 0.00 0.00 0.00 51 1003.7
20260504011920 17 264 0.0 0.0 0.00 0.00 0.00 50 1003.6
20260504011420 17 264 0.0 0.0 0.00 0.00 0.00 50 1003.5
20260504010920 17 264 0.0 0.0 0.00 0.00 0.00 49 1003.5
20260504010350 17 264 0.0 0.0 0.00 0.00 0.00 49 1003.4
20260504005850 17 282 0.0 0.0 0.00 0.00 0.00 48 1003.4
20260504005350 17 289 1.6 8.0 0.00 0.00 0.00 48 1003.4
20260504004850 18 261 0.0 0.0 0.00 0.00 0.00 46 1003.3
20260504004350 18 295 1.6 3.2 0.00 0.00 0.00 46 1003.3
20260504003850 18 278 1.6 3.2 0.00 0.00 0.00 46 1003.4
20260504003350 18 287 1.6 3.2 0.00 0.00 0.00 45 1003.4
20260504002850 18 295 1.6 4.8 0.00 0.00 0.00 45 1003.4
20260504002350 18 281 3.2 4.8 0.00 0.00 0.00 46 1003.4
20260504001850 18 296 1.6 4.8 0.00 0.00 0.00 44 1003.4
20260504001350 18 297 4.8 3.2 0.00 0.00 0.00 45 1003.3
20260504000850 18 328 0.0 0.0 0.00 0.00 0.00 44 1003.3
20260504000354 18 323 0.0 0.0 0.00 0.00 0.00 44 1003.3
20260503235820 18 277 4.8 4.8 0.00 0.00 0.00 44 1003.4
20260503235320 18 277 3.2 4.8 0.00 0.00 0.00 43 1003.4
20260503234750 19 288 9.7 11.3 0.00 0.00 0.00 42 1003.2
20260503234251 19 305 8.0 8.0 0.00 0.00 0.00 43 1003.4
20260503233750 19 285 3.2 9.7 0.00 0.00 0.00 42 1003.4
20260503233250 19 289 8.0 11.3 0.00 0.00 0.00 42 1003.4
20260503232721 19 297 8.0 9.7 0.00 0.00 0.00 40 1003.5
20260503232150 19 298 3.2 8.0 0.00 0.00 0.00 40 1003.4
20260503231621 20 286 4.8 12.9 0.00 0.00 0.00 41 1003.5
20260503231120 20 293 4.8 9.7 0.00 0.00 0.00 40 1003.6
20260503230550 20 288 8.0 14.5 0.00 0.00 0.00 40 1003.5
20260503230050 20 280 8.0 12.9 0.00 0.00 0.00 40 1003.7
20260503225520 20 299 9.7 14.5 0.00 0.00 0.00 40 1003.6
20260503225022 20 267 8.0 12.9 0.00 0.00 0.00 41 1003.6
20260503224449 20 274 8.0 9.7 0.00 0.00 0.00 41 1003.7
20260503223949 20 285 9.7 12.9 0.00 0.00 0.00 42 1003.7
20260503223419 19 282 9.7 12.9 0.00 0.00 0.00 41 1003.7
20260503222919 19 283 8.0 14.5 0.00 0.00 0.00 40 1003.7
20260503222419 19 280 8.0 14.5 0.00 0.00 0.00 40 1003.8
20260503221919 19 278 4.8 8.0 0.00 0.00 0.00 41 1003.8
20260503221419 19 273 8.0 19.3 0.00 0.00 0.00 40 1003.9
20260503220919 19 285 9.7 14.5 0.00 0.00 0.00 40 1003.9
20260503220419 19 288 11.3 14.5 0.00 0.00 0.00 40 1004.0
20260503215919 19 283 9.7 14.5 0.00 0.00 0.00 40 1003.8
20260503215419 19 270 8.0 11.3 0.00 0.00 0.00 40 1004.2
20260503214849 19 265 9.7 12.9 0.00 0.00 0.00 41 1004.0
20260503214349 19 295 9.7 14.5 0.00 0.00 0.00 40 1004.1
20260503213849 19 277 11.3 20.9 0.00 0.00 0.00 40 1004.3
20260503213349 19 280 8.0 9.7 0.00 0.00 0.00 40 1004.4
20260503212849 19 279 11.3 19.3 0.00 0.00 0.00 40 1004.4
20260503212319 19 278 9.7 20.9 0.00 0.00 0.00 40 1004.5
20260503211749 19 283 4.8 19.3 0.00 0.00 0.00 39 1004.6
20260503211252 19 271 8.0 14.5 0.00 0.00 0.00 40 1004.7
20260503210749 19 271 11.3 19.3 0.00 0.00 0.00 40 1004.5
20260503210249 18 287 9.7 11.3 0.00 0.00 0.00 40 1004.9
20260503205749 18 277 11.3 25.7 0.00 0.00 0.00 40 1004.9
20260503205249 18 279 11.3 14.5 0.00 0.00 0.00 40 1005.0
20260503204719 18 277 11.3 19.3 0.00 0.00 0.00 41 1004.7
20260503204219 18 282 11.3 14.5 0.00 0.00 0.00 44 1005.3
20260503203649 18 275 4.8 9.7 0.00 0.00 0.00 45 1005.4
20260503203119 18 275 8.0 14.5 0.00 0.00 0.00 45 1005.5
20260503202549 18 276 11.3 14.5 0.00 0.00 0.00 47 1005.7
20260503202019 17 259 4.8 8.0 0.00 0.00 0.00 46 1005.8
20260503201521 17 252 9.7 12.9 0.00 0.00 0.00 48 1006.0
20260503200949 17 270 8.0 11.3 0.00 0.00 0.00 46 1006.2
20260503200449 17 265 9.7 19.3 0.00 0.00 0.00 47 1006.4
20260503195949 17 252 9.7 11.3 0.00 0.00 0.00 47 1006.5
20260503195449 17 279 8.0 14.5 0.00 0.00 0.00 49 1006.6
20260503194949 17 251 11.3 20.9 0.00 0.00 0.00 47 1006.8
20260503194449 17 272 9.7 19.3 0.00 0.00 0.00 47 1006.9
20260503193949 16 274 9.7 12.9 0.00 0.00 0.00 46 1006.8
20260503193449 16 283 11.3 16.1 0.00 0.00 0.00 47 1006.9
20260503192948 16 277 8.0 16.1 0.00 0.00 0.00 45 1006.9
20260503192448 16 256 8.0 16.1 0.00 0.00 0.00 44 1006.9
20260503191948 17 267 11.3 14.5 0.00 0.00 0.00 43 1006.9
20260503191418 17 263 4.8 9.7 0.00 0.00 0.00 42 1006.9
20260503190918 16 281 9.7 12.9 0.00 0.00 0.00 48 1006.9
20260503190418 16 241 11.3 16.1 0.00 0.00 0.00 43 1006.9
20260503185918 16 283 9.7 19.3 0.00 0.00 0.00 45 1007.0
20260503185418 16 243 8.0 9.7 0.00 0.00 0.00 45 1007.0
20260503184848 16 255 11.3 12.9 0.00 0.00 0.00 44 1007.0
20260503184348 16 260 11.3 12.9 0.00 0.00 0.00 45 1007.1
20260503183848 15 273 11.3 16.1 0.00 0.00 0.00 45 1007.1
20260503183348 15 251 9.7 19.3 0.00 0.00 0.00 46 1007.3
20260503182848 15 255 11.3 19.3 0.00 0.00 0.00 48 1007.3
20260503182348 15 243 8.0 9.7 0.00 0.00 0.00 47 1007.4
20260503181818 15 258 9.7 14.5 0.00 0.00 0.00 49 1007.5
20260503181248 15 259 9.7 12.9 0.00 0.00 0.00 48 1007.6
20260503180748 16 252 12.9 20.9 0.00 0.00 0.00 48 1007.8
20260503180250 16 254 9.7 12.9 0.00 0.00 0.00 51 1007.9
20260503175748 15 264 8.0 11.3 0.00 0.00 0.00 48 1008.1
20260503175248 15 263 8.0 9.7 0.00 0.00 0.00 50 1008.3
20260503174719 16 248 9.7 12.9 0.00 0.00 0.00 53 1008.4
20260503174218 15 275 8.0 9.7 0.00 0.00 0.00 52 1008.5
20260503173648 15 258 9.7 12.9 0.00 0.00 0.00 54 1008.6
20260503173148 14 268 11.3 14.5 0.00 0.00 0.00 55 1008.8
20260503172648 14 266 12.9 22.5 0.00 0.00 0.00 56 1009.0
20260503172148 13 257 9.7 14.5 0.00 0.00 0.00 61 1009.3
20260503171648 13 274 9.7 11.3 0.00 0.00 0.00 60 1009.5
20260503171148 12 251 8.0 11.3 0.00 0.00 0.00 60 1009.5
20260503170648 12 262 9.7 14.5 0.00 0.00 0.00 60 1009.7
20260503170148 13 268 9.7 12.9 0.00 0.00 0.00 60 1009.7
20260503150717 13 274 8.0 14.5 0.00 0.00 0.00 54 1011.1
20260503150217 13 281 9.7 12.9 0.00 0.00 0.00 54 1011.1
20260503131417 11 270 8.0 14.5 0.00 0.00 0.00 57 1011.9
20260503130917 11 281 8.0 19.3 0.00 0.00 0.00 57 1011.9
20260503130417 11 281 4.8 9.7 0.00 0.00 0.00 57 1011.9
20260503110716 9 278 8.0 11.3 0.00 0.00 0.00 57 1011.6
20260503110216 9 292 4.8 14.5 0.00 0.00 0.00 57 1011.7
20260503090319 8 287 3.2 4.8 0.00 0.00 0.00 58 1012.4
20260503081616 8 284 4.8 9.7 0.00 0.00 0.00 59 1012.7
20260503081116 8 268 1.6 8.0 0.00 0.00 0.00 59 1012.7
20260503080616 7 272 3.2 4.8 0.00 0.00 0.00 59 1012.9
20260503072445 7 288 3.2 3.2 0.00 0.00 0.00 63 1012.9
20260503071915 7 274 0.0 3.2 0.00 0.00 0.00 63 1013.0
20260503071345 6 292 3.2 8.0 0.00 0.00 0.00 63 1013.0
20260503070845 6 274 0.0 1.6 0.00 0.00 0.00 63 1013.0
20260503070345 6 271 0.0 0.0 0.00 0.00 0.00 63 1013.1
20260503060115 6 254 0.0 0.0 0.00 0.00 0.00 64 1013.5
20260503055045 6 246 0.0 0.0 0.00 0.00 0.00 63 1013.7
20260503054515 6 246 0.0 0.0 0.00 0.00 0.00 63 1013.6
20260503054015 6 270 0.0 1.6 0.00 0.00 0.00 63 1013.7
20260503053515 6 264 1.6 1.6 0.00 0.00 0.00 63 1013.7
20260503053015 6 270 0.0 4.8 0.00 0.00 0.00 64 1013.7
20260503052445 6 256 1.6 1.6 0.00 0.00 0.00 64 1013.8
20260503051945 6 253 0.0 0.0 0.00 0.00 0.00 63 1013.8
20260503051415 6 258 0.0 0.0 0.00 0.00 0.00 63 1013.8
20260503050915 7 266 1.6 3.2 0.00 0.00 0.00 64 1013.9
20260503050415 7 240 0.0 0.0 0.00 0.00 0.00 63 1013.9
20260503045915 7 281 1.6 3.2 0.00 0.00 0.00 64 1014.0